Weather History for KSBN - April, 2013

Change the Weather History Date:

Saturday, April 13, 2013

  Actual Average Record
Temperature  
Mean Temperature 39 °F 48 °F  
Max Temperature 44 °F 59 °F 85 °F (1941)
Min Temperature 34 °F 38 °F 18 °F (1950)
Degree Days  
Heating Degree Days 26 17  
Month to date heating degree days 282 251  
Since 1 July heating degree days 5693 5795  
Cooling Degree Days 0 0  
Month to date cooling degree days 0 0  
Year to date cooling degree days 0 1  
Moisture  
Dew Point 29 °F    
Average Humidity 66    
Maximum Humidity 82    
Minimum Humidity 49    
Precipitation  
Precipitation 0.01 in 0.11 in 1.23 in (1909)
Month to date precipitation 1.74 1.35  
Year to date precipitation 10.49 8.01  
Snow  
Snow T in 0.10 in 1.40 in (1962)
Month to date snowfall T 1.0  
Since 1 July snowfall 59.9 66.2  
Snow Depth 0.00 in    
Sea Level Pressure  
Sea Level Pressure 29.91 in    
Wind  
Wind Speed 11 mph (West)    
Max Wind Speed 24 mph    
Max Gust Speed 30 mph    
Visibility 9 miles    
Events Rain , Snow    
T = Trace of Precipitation, MM = Missing Value Source: NWS Daily Summary

Daily Weather History Graph

Daily Weather History Graph

Search for Another Location

Airport or City:

Trip Planner

Search our weather history database for the weather conditions in past years. The results will help you decide how hot, cold, wet, or windy it might be!

Date:

Astronomy

Apr. 13, 2013 Rise Set
Actual Time 7:07 AM EDT 8:24 PM EDT
Civil Twilight 6:39 AM EDT 8:52 PM EDT
Nautical Twilight 6:04 AM EDT 9:27 PM EDT
Astronomical Twilight 5:28 AM EDT 10:03 PM EDT
Moon 8:56 AM EDT (4/13) 11:50 PM EDT (4/13)
Length of Visible Light 14h 13m
Length of Day
13h 16m
Waxing Crescent, 10% of the Moon is Illuminated
Apr 13
Waxing Crescent
Apr 18
First Quarter
Apr 25
Full
May 2
Last Quarter
May 9
New

Hourly Weather History & Observations

Time (EDT) Temp. Windchill Dew Point Humidity Pressure Visibility Wind Dir Wind Speed Gust Speed Precip Events Conditions
12:54 AM 39.0 °F 32.3 °F 28.0 °F 65% 29.86 in 10.0 mi WSW 10.4 mph - N/A   Overcast
1:54 AM 37.9 °F 30.0 °F 30.0 °F 73% 29.87 in 10.0 mi SW 12.7 mph 18.4 mph N/A   Overcast
2:42 AM 37.4 °F 30.8 °F 30.2 °F 75% 29.86 in 10.0 mi WSW 9.2 mph - N/A   Overcast
2:54 AM 37.9 °F 29.6 °F 32.0 °F 79% 29.88 in 9.0 mi WSW 13.8 mph 18.4 mph N/A   Overcast
3:35 AM 35.6 °F 28.6 °F 33.8 °F 93% 29.86 in 10.0 mi WSW 9.2 mph - 0.00 in   Overcast
3:54 AM 37.0 °F 29.3 °F 34.0 °F 89% 29.88 in 9.0 mi WSW 11.5 mph - 0.00 in Rain Light Rain
4:22 AM 37.4 °F 30.8 °F 33.8 °F 87% 29.85 in 10.0 mi WSW 9.2 mph - 0.00 in   Overcast
4:54 AM 37.0 °F 29.8 °F 33.1 °F 86% 29.87 in 10.0 mi WSW 10.4 mph - 0.00 in   Overcast
5:54 AM 37.0 °F 29.8 °F 30.9 °F 79% 29.86 in 10.0 mi WSW 10.4 mph - N/A   Overcast
6:54 AM 37.0 °F 28.9 °F 30.0 °F 76% 29.87 in 10.0 mi WSW 12.7 mph - N/A   Overcast
7:54 AM 36.0 °F 27.5 °F 30.0 °F 79% 29.88 in 10.0 mi WSW 12.7 mph - N/A   Overcast
8:35 AM 35.6 °F 26.6 °F 30.2 °F 81% 29.87 in 9.0 mi WSW 13.8 mph 20.7 mph 0.00 in Rain Light Rain
8:54 AM 35.1 °F 27.4 °F 32.0 °F 89% 29.89 in 6.0 mi SW 10.4 mph - 0.00 in Rain Light Rain
9:07 AM 35.6 °F 28.0 °F 32.0 °F 87% 29.87 in 10.0 mi WNW 10.4 mph - N/A   Overcast
9:10 AM 35.6 °F 26.6 °F 32.0 °F 87% 29.87 in 6.0 mi WNW 13.8 mph - 0.00 in Rain Light Rain
9:18 AM 33.8 °F 25.3 °F 30.2 °F 87% 29.88 in 3.0 mi West 11.5 mph - 0.00 in Snow Light Snow
9:26 AM 33.8 °F 23.5 °F 30.2 °F 87% 29.88 in 2.5 mi West 16.1 mph 19.6 mph 0.00 in Snow Light Snow
9:28 AM 33.8 °F 24.8 °F 30.2 °F 87% 29.88 in 1.8 mi West 12.7 mph 19.6 mph 0.00 in Snow Light Snow
9:37 AM 33.8 °F 24.3 °F 30.2 °F 87% 29.88 in 3.0 mi West 13.8 mph - 0.00 in Snow Light Snow
9:54 AM 35.1 °F 25.5 °F 30.0 °F 82% 29.90 in 2.5 mi West 15.0 mph - 0.01 in Snow Light Snow
10:01 AM 35.6 °F 26.2 °F 30.2 °F 81% 29.88 in 9.0 mi West 15.0 mph - 0.00 in   Overcast
10:20 AM 35.6 °F 27.5 °F 30.2 °F 81% 29.88 in 10.0 mi West 11.5 mph - 0.00 in Rain Light Rain
10:54 AM 35.1 °F 25.5 °F 28.9 °F 78% 29.91 in 4.0 mi West 15.0 mph - 0.00 in Snow Light Snow
11:05 AM 35.6 °F 27.1 °F 30.2 °F 81% 29.89 in 9.0 mi WSW 12.7 mph - 0.00 in   Overcast
11:54 AM 37.0 °F 28.9 °F 28.9 °F 73% 29.93 in 10.0 mi West 12.7 mph - 0.00 in   Overcast
12:09 PM 35.6 °F 26.2 °F 28.4 °F 75% 29.91 in 8.0 mi WNW 15.0 mph - 0.00 in Snow Light Snow
12:41 PM 39.2 °F 29.0 °F 28.4 °F 65% 29.91 in 10.0 mi West 21.9 mph 26.5 mph 0.00 in   Overcast
12:54 PM 37.9 °F 27.3 °F 25.0 °F 60% 29.94 in 10.0 mi West 21.9 mph 29.9 mph 0.00 in   Overcast
1:54 PM 41.0 °F 32.2 °F 26.1 °F 55% 29.94 in 10.0 mi West 18.4 mph 26.5 mph N/A   Overcast
2:54 PM 41.0 °F 32.2 °F 26.1 °F 55% 29.96 in 10.0 mi West 18.4 mph 26.5 mph N/A   Overcast
3:54 PM 43.0 °F 36.4 °F 27.0 °F 53% 29.96 in 10.0 mi WSW 12.7 mph 19.6 mph N/A   Mostly Cloudy
4:54 PM 43.0 °F 35.1 °F 24.1 °F 47% 29.96 in 10.0 mi West 17.3 mph 25.3 mph N/A   Overcast
5:54 PM 43.0 °F 36.4 °F 26.1 °F 51% 29.97 in 10.0 mi WSW 12.7 mph 21.9 mph N/A   Overcast
6:54 PM 43.0 °F 37.7 °F 27.0 °F 53% 29.97 in 10.0 mi West 9.2 mph - N/A   Mostly Cloudy
7:54 PM 42.1 °F 38.4 °F 27.0 °F 55% 29.97 in 10.0 mi West 5.8 mph - N/A   Overcast
8:54 PM 41.0 °F 38.0 °F 28.0 °F 60% 29.99 in 10.0 mi West 4.6 mph - N/A   Overcast
9:54 PM 39.9 °F 36.7 °F 28.0 °F 63% 30.00 in 10.0 mi WSW 4.6 mph - N/A   Overcast
10:54 PM 39.9 °F 37.8 °F 28.0 °F 63% 30.01 in 10.0 mi SW 3.5 mph - N/A   Overcast
11:54 PM 37.9 °F 35.5 °F 28.9 °F 70% 30.01 in 10.0 mi SSW 3.5 mph - N/A   Overcast